EW7774 Weather Reports


Display with metric or nautical units.
time (UTC)temp
F
wind
direction
speed
MPH
gust
MPH
rain 1hr
in
rain 24hr
in
rain mn
in
humidity
%
barometer
mb
20200408211819 76 306 1.0 13.0 0.00 0.09 0.08 45 1002.2
20200408211330 76 237 1.0 13.0 0.00 0.09 0.08 42 1002.1
20200408210820 76 8 2.0 17.0 0.00 0.09 0.08 45 1002.1
20200408210315 76 356 4.0 13.0 0.00 0.09 0.08 45 1002.2
20200408205825 76 7 1.0 7.0 0.00 0.09 0.08 46 1002.1
20200408205316 76 286 1.0 13.0 0.00 0.09 0.08 44 1002.2
20200408204826 76 356 2.0 13.0 0.00 0.09 0.08 45 1002.2
20200408204318 76 15 2.0 10.0 0.00 0.09 0.08 48 1002.1
20200408203829 76 7 1.0 10.0 0.00 0.09 0.08 50 1002.1
20200408203318 76 210 1.0 9.0 0.00 0.09 0.08 49 1002.1
20200408202828 76 352 3.0 18.0 0.00 0.09 0.08 48 1001.9
20200408202319 77 32 6.0 18.0 0.00 0.09 0.08 46 1002.0
20200408201833 77 296 2.0 8.0 0.00 0.09 0.08 49 1002.0
20200408201325 77 19 1.0 8.0 0.00 0.09 0.08 49 1001.8
20200408200814 77 286 2.0 7.0 0.00 0.09 0.08 50 1001.6
20200408200324 77 32 0.0 13.0 0.00 0.09 0.08 49 1001.7
20200408195815 77 2 2.0 17.0 0.00 0.22 0.08 48 1001.6
20200408195326 77 325 4.0 17.0 0.00 0.22 0.08 46 1001.6
20200408194818 76 350 4.0 15.0 0.00 0.22 0.08 45 1001.6
20200408194327 76 17 2.0 10.0 0.00 0.22 0.08 45 1001.5
20200408193820 76 325 1.0 12.0 0.00 0.22 0.08 47 1001.6
20200408193331 76 360 2.0 12.0 0.00 0.22 0.08 50 1001.7
20200408192822 76 246 2.0 12.0 0.00 0.22 0.08 49 1001.7
20200408192331 76 9 2.0 10.0 0.00 0.22 0.08 52 1001.7
20200408191821 75 190 2.0 10.0 0.00 0.22 0.08 51 1001.7
20200408191331 75 258 1.0 5.0 0.00 0.22 0.08 52 1001.7
20200408190823 75 348 1.0 6.0 0.00 0.22 0.08 53 1001.8
20200408190333 75 355 1.0 7.0 0.00 0.22 0.08 53 1001.9
20200408185824 75 15 0.0 7.0 0.00 0.22 0.08 52 1001.9
20200408185317 75 235 1.0 8.0 0.00 0.22 0.08 52 1002.0
20200408184827 75 325 2.0 13.0 0.00 0.22 0.08 54 1002.1
20200408184317 76 63 1.0 13.0 0.00 0.22 0.08 52 1002.1
20200408183828 76 185 0.0 2.0 0.00 0.22 0.08 52 1002.1
20200408183318 76 231 0.0 5.0 0.00 0.22 0.08 54 1002.1
20200408182826 75 34 0.0 5.0 0.00 0.22 0.08 54 1002.2
20200408182318 75 52 0.0 12.0 0.00 0.22 0.08 54 1002.3
20200408181828 75 8 2.0 13.0 0.00 0.22 0.08 53 1002.3
20200408181323 74 21 3.0 13.0 0.00 0.22 0.08 56 1002.3
20200408180813 74 346 2.0 11.0 0.00 0.22 0.08 55 1002.3
20200408180326 74 73 1.0 9.0 0.00 0.22 0.08 57 1002.4
20200408175833 74 340 3.0 9.0 0.00 0.22 0.08 56 1002.4
20200408175324 74 14 1.0 8.0 0.00 0.22 0.08 53 1002.3
20200408174814 74 25 3.0 8.0 0.00 0.22 0.08 53 1002.5
20200408174324 75 208 0.0 4.0 0.00 0.22 0.08 53 1002.5
20200408173814 75 319 1.0 18.0 0.00 0.22 0.08 53 1002.5
20200408173324 74 356 3.0 18.0 0.00 0.22 0.08 55 1002.4
20200408172817 74 27 3.0 9.0 0.00 0.22 0.08 58 1002.4
20200408172325 73 19 0.0 6.0 0.00 0.22 0.08 58 1002.4
20200408171814 73 359 1.0 7.0 0.00 0.22 0.08 57 1002.4
20200408171323 72 12 1.0 10.0 0.00 0.22 0.08 55 1002.5
20200408170813 72 169 0.0 11.0 0.00 0.22 0.08 57 1002.5
20200408170323 72 337 1.0 13.0 0.00 0.22 0.08 57 1002.7
20200408165834 72 238 5.0 13.0 0.00 0.22 0.08 57 1002.6
20200408165321 73 314 0.0 8.0 0.00 0.22 0.08 57 1002.6
20200408164815 73 9 2.0 10.0 0.00 0.22 0.08 57 1002.6
20200408164324 74 27 2.0 13.0 0.00 0.22 0.08 56 1002.6
20200408163815 74 230 2.0 13.0 0.00 0.22 0.08 56 1002.6
20200408163326 73 333 0.0 9.0 0.00 0.22 0.08 56 1002.6
20200408162814 73 338 2.0 9.0 0.00 0.22 0.08 61 1002.7
20200408162324 72 334 1.0 10.0 0.00 0.22 0.08 57 1002.6
20200408161833 72 254 1.0 17.0 0.00 0.22 0.08 57 1002.6
20200408161323 72 105 1.0 17.0 0.00 0.22 0.08 58 1002.6
20200408160832 73 10 3.0 10.0 0.00 0.22 0.08 58 1002.7
20200408160327 73 15 3.0 8.0 0.00 0.22 0.08 56 1002.8
20200408155817 73 296 0.0 7.0 0.00 0.22 0.08 59 1002.7
20200408155325 72 296 3.0 9.0 0.00 0.22 0.08 57 1002.7
20200408154815 72 237 1.0 9.0 0.00 0.22 0.08 60 1002.9
20200408154325 72 225 4.0 8.0 0.00 0.22 0.08 59 1002.8
20200408153815 72 9 0.0 9.0 0.00 0.22 0.08 62 1002.9
20200408153324 71 320 1.0 8.0 0.00 0.22 0.08 62 1003.0
20200408152814 70 7 0.0 9.0 0.00 0.22 0.08 63 1002.9
20200408152322 70 252 1.0 9.0 0.00 0.22 0.08 63 1002.9
20200408151817 69 301 2.0 9.0 0.00 0.22 0.08 62 1002.9
20200408151326 69 286 3.0 9.0 0.00 0.22 0.08 63 1002.8
20200408150816 69 267 2.0 12.0 0.00 0.22 0.08 67 1002.8
20200408150325 68 255 2.0 12.0 0.00 0.22 0.08 66 1002.8
20200408145815 68 357 1.0 6.0 0.00 0.22 0.08 68 1002.8
20200408145323 67 207 2.0 6.0 0.00 0.22 0.08 69 1002.7
20200408144831 66 235 0.0 5.0 0.00 0.22 0.08 77 1002.7
20200408144322 65 296 0.0 4.0 0.00 0.22 0.08 81 1002.8
20200408143815 64 19 0.0 4.0 0.00 0.22 0.08 81 1002.8
20200408143335 63 300 0.0 1.0 0.00 0.22 0.08 84 1002.8
20200408142833 63 216 0.0 1.0 0.00 0.22 0.08 85 1002.8
20200408142323 62 215 0.0 1.0 0.00 0.22 0.08 86 1002.7
20200408141831 61 215 0.0 1.0 0.00 0.22 0.08 88 1002.7
20200408141320 60 219 0.0 0.0 0.00 0.22 0.08 86 1002.8
20200408140829 60 219 0.0 1.0 0.00 0.22 0.08 86 1002.7
20200408140319 60 219 0.0 1.0 0.00 0.22 0.08 86 1002.8
20200408135828 60 219 0.0 1.0 0.00 0.22 0.08 88 1002.8
20200408135320 60 219 0.0 3.0 0.00 0.22 0.08 89 1002.7
20200408134831 59 220 0.0 3.0 0.00 0.22 0.08 87 1002.7
20200408134321 59 156 0.0 3.0 0.00 0.22 0.08 88 1002.8
20200408133831 59 156 0.0 3.0 0.00 0.22 0.08 90 1002.7
20200408133321 59 199 0.0 0.0 0.00 0.22 0.08 89 1002.7
20200408132829 58 192 0.0 0.0 0.00 0.22 0.08 90 1002.7
20200408132318 58 192 0.0 0.0 0.00 0.22 0.08 91 1002.6
20200408131829 58 192 0.0 0.0 0.00 0.22 0.08 93 1002.6
20200408131318 57 192 0.0 0.0 0.00 0.22 0.08 93 1002.6
20200408130832 57 192 0.0 0.0 0.00 0.22 0.08 93 1002.5
20200408130321 57 192 0.0 2.0 0.00 0.22 0.08 93 1002.4
20200408125830 57 192 0.0 2.0 0.00 0.22 0.08 93 1002.4
20200408125321 56 192 0.0 0.0 0.00 0.22 0.08 93 1002.3
20200408124831 56 190 0.0 0.0 0.00 0.22 0.08 93 1002.3
20200408124320 56 190 0.0 0.0 0.00 0.22 0.08 94 1002.1
20200408123830 56 190 0.0 0.0 0.00 0.22 0.08 94 1002.2
20200408123318 56 190 0.0 4.0 0.00 0.22 0.08 94 1002.2
20200408122828 56 190 0.0 4.0 0.00 0.22 0.08 94 1002.3
20200408122321 56 11 0.0 0.0 0.00 0.22 0.08 94 1002.2
20200408121829 55 11 0.0 0.0 0.00 0.22 0.08 94 1002.3
20200408121319 55 11 0.0 0.0 0.00 0.22 0.08 94 1002.3
20200408120828 55 11 0.0 0.0 0.00 0.22 0.08 94 1002.3
20200408120318 55 11 0.0 0.0 0.00 0.22 0.08 94 1002.4
20200408115827 55 11 0.0 0.0 0.00 0.23 0.08 94 1002.4
20200408115316 55 11 0.0 0.0 0.00 0.23 0.08 94 1002.2
20200408114827 55 11 0.0 0.0 0.00 0.23 0.08 94 1002.2
20200408114317 55 11 0.0 3.0 0.00 0.23 0.08 94 1001.9
20200408113828 55 5 0.0 3.0 0.00 0.23 0.08 93 1001.8
20200408113317 55 25 0.0 0.0 0.00 0.23 0.08 93 1001.5
20200408112826 55 25 0.0 2.0 0.00 0.23 0.08 93 1001.2
20200408112315 55 26 0.0 3.0 0.00 0.23 0.08 93 1001.0
20200408111825 55 275 0.0 6.0 0.00 0.23 0.08 93 1001.4
20200408111316 55 200 1.0 6.0 0.00 0.23 0.08 93 1001.6
20200408110823 55 196 1.0 4.0 0.00 0.23 0.08 93 1001.9
20200408110332 55 249 0.0 0.0 0.00 0.23 0.08 94 1002.2
20200408105825 55 249 0.0 0.0 0.00 0.23 0.08 94 1002.4
20200408105314 55 249 0.0 0.0 0.01 0.23 0.08 94 1002.5
20200408104824 55 250 0.0 0.0 0.01 0.23 0.08 94 1002.5
20200408104333 55 250 0.0 0.0 0.01 0.23 0.08 94 1002.6
20200408103822 55 237 0.0 0.0 0.01 0.23 0.08 94 1002.6
20200408103333 55 237 0.0 0.0 0.01 0.23 0.08 93 1002.6
20200408102822 55 237 0.0 0.0 0.01 0.23 0.08 93 1002.4
20200408102334 55 237 0.0 0.0 0.01 0.23 0.08 93 1002.4
20200408101820 55 237 0.0 0.0 0.01 0.23 0.08 93 1002.3
20200408101331 55 237 0.0 0.0 0.01 0.23 0.08 93 1002.1
20200408100819 55 235 0.0 3.0 0.01 0.23 0.08 94 1002.0
20200408100329 55 235 0.0 3.0 0.01 0.23 0.08 94 1002.2
20200408095817 55 233 0.0 1.0 0.02 0.23 0.08 94 1002.4
20200408095326 55 205 0.0 1.0 0.01 0.22 0.07 94 1002.5
20200408094815 55 2 0.0 0.0 0.02 0.22 0.07 94 1002.4
20200408094323 55 13 0.0 0.0 0.02 0.22 0.07 94 1002.4
20200408093829 55 13 0.0 0.0 0.03 0.22 0.07 94 1002.3
20200408093317 55 13 0.0 0.0 0.03 0.22 0.07 94 1002.0
20200408092830 55 13 0.0 0.0 0.04 0.22 0.07 94 1002.1
20200408092318 56 13 0.0 0.0 0.04 0.22 0.07 94 1002.4
20200408091315 56 13 0.0 0.0 0.07 0.22 0.07 93 1002.4
20200408090824 56 13 0.0 0.0 0.07 0.22 0.07 93 1002.4
20200408090332 56 13 0.0 4.0 0.07 0.22 0.07 93 1002.4
20200408085820 56 13 0.0 4.0 0.06 0.22 0.06 93 1003.0
20200408085328 56 334 0.0 0.0 0.06 0.22 0.06 93 1003.3
20200408084816 56 334 0.0 6.0 0.05 0.21 0.05 93 1003.3
20200408084330 56 17 1.0 6.0 0.05 0.21 0.05 93 1003.3
20200408083817 56 333 0.0 6.0 0.04 0.20 0.04 95 1002.9
20200408083325 55 25 0.0 9.0 0.04 0.20 0.04 95 1003.1
20200408082834 56 60 1.0 9.0 0.03 0.19 0.03 96 1003.4
20200408082322 55 10 1.0 8.0 0.03 0.19 0.03 96 1003.3
20200408081831 55 46 1.0 16.0 0.01 0.17 0.01 96 1003.7
20200408081319 54 9 7.0 16.0 0.00 0.16 0.00 95 1003.4
20200408080825 54 125 0.0 0.0 0.00 0.16 0.00 95 1000.7
20200408080315 54 125 0.0 0.0 0.00 0.16 0.00 95 1000.6
20200408075826 54 125 0.0 0.0 0.00 0.16 0.00 95 1000.6
20200408075313 54 125 0.0 0.0 0.00 0.16 0.00 95 1000.7
20200408074823 54 125 0.0 0.0 0.00 0.16 0.00 95 1000.7
20200408074330 54 125 0.0 0.0 0.00 0.16 0.00 95 1000.7
20200408073821 54 125 0.0 0.0 0.00 0.16 0.00 95 1000.9
20200408073327 54 125 0.0 0.0 0.00 0.16 0.00 95 1000.9
20200408072815 54 125 0.0 0.0 0.00 0.16 0.00 95 1001.0
20200408072324 54 125 0.0 0.0 0.00 0.16 0.00 95 1001.1
20200408071833 54 125 0.0 0.0 0.00 0.16 0.00 95 1001.3
20200408071325 54 125 0.0 0.0 0.00 0.16 0.00 94 1001.4
20200408070834 53 125 0.0 0.0 0.00 0.16 0.00 94 1001.6
20200408070322 54 125 0.0 0.0 0.00 0.16 0.00 94 1001.6
20200408065830 54 125 0.0 0.0 0.00 0.16 0.00 94 1001.6
20200408065318 54 125 0.0 0.0 0.00 0.16 0.00 94 1001.5
20200408064829 54 125 0.0 0.0 0.00 0.16 0.00 94 1001.5
20200408064317 54 125 0.0 0.0 0.00 0.16 0.00 94 1001.6
20200408063824 54 125 0.0 0.0 0.00 0.16 0.00 94 1001.7
20200408063332 54 125 0.0 0.0 0.00 0.16 0.00 94 1001.8
20200408062824 54 125 0.0 0.0 0.00 0.16 0.00 94 1001.8
20200408062331 54 125 0.0 0.0 0.00 0.16 0.00 94 1002.0
20200408061821 54 125 0.0 0.0 0.00 0.16 0.00 94 1002.1
20200408061327 54 125 0.0 0.0 0.00 0.16 0.00 94 1002.1
20200408060818 55 125 0.0 0.0 0.00 0.16 0.00 94 1002.1
20200408060326 55 125 0.0 0.0 0.00 0.16 0.00 94 1002.2
20200408055815 55 125 0.0 0.0 0.00 0.16 0.00 94 1002.4
20200408055321 55 125 0.0 0.0 0.00 0.16 0.00 94 1002.6
20200408054831 55 125 0.0 0.0 0.00 0.16 0.00 94 1002.6
20200408054324 55 125 0.0 0.0 0.00 0.16 0.00 94 1002.7
20200408053831 55 125 0.0 0.0 0.00 0.16 0.00 94 1002.8
20200408053318 55 125 0.0 0.0 0.00 0.16 0.00 93 1003.1
20200408052828 55 125 0.0 0.0 0.00 0.16 0.00 93 1003.0
20200408052315 56 125 0.0 0.0 0.00 0.16 0.00 93 1003.0
20200408051826 56 125 0.0 0.0 0.00 0.16 0.00 93 1003.1
20200408051314 56 125 0.0 0.0 0.00 0.16 0.00 94 1003.3
20200408050823 56 125 0.0 0.0 0.00 0.16 0.00 94 1003.4
20200408050331 56 125 0.0 0.0 0.00 0.16 0.00 94 1003.4
20200408045824 56 125 0.0 0.0 0.00 0.16 0.00 94 1003.5
20200408045314 56 125 0.0 0.0 0.00 0.16 0.00 94 1003.7
20200408044823 56 125 0.0 0.0 0.00 0.16 0.00 93 1003.8
20200408044332 56 125 0.0 0.0 0.00 0.16 0.00 94 1003.9
20200408043821 56 125 0.0 0.0 0.00 0.16 0.00 93 1004.0
20200408043331 56 125 0.0 0.0 0.00 0.16 0.00 93 1004.0
20200408042821 57 125 0.0 0.0 0.00 0.16 0.00 93 1004.3
20200408042329 57 125 0.0 0.0 0.00 0.16 0.00 93 1004.3
20200408041822 57 125 0.0 0.0 0.00 0.16 0.00 93 1004.5
20200408041314 57 125 0.0 0.0 0.00 0.16 0.00 92 1004.7
20200408040823 57 125 0.0 0.0 0.00 0.16 0.00 93 1004.7
20200408040332 58 125 0.0 0.0 0.00 0.16 0.00 93 1004.9
20200408035820 58 125 0.0 0.0 0.00 0.16 0.16 93 1005.0
20200408035330 58 125 0.0 0.0 0.00 0.16 0.16 93 1005.3
20200408034820 58 125 0.0 0.0 0.00 0.16 0.16 93 1005.4
20200408034333 58 125 0.0 0.0 0.00 0.16 0.16 93 1005.5
20200408033818 58 125 0.0 0.0 0.00 0.16 0.16 93 1005.5
20200408033328 58 125 0.0 0.0 0.00 0.16 0.16 93 1005.6
20200408032822 59 125 0.0 0.0 0.00 0.16 0.16 93 1005.5
20200408032332 59 188 0.0 0.0 0.00 0.16 0.16 93 1005.6
20200408031822 59 188 0.0 1.0 0.00 0.16 0.16 93 1005.7
20200408031332 59 187 0.0 5.0 0.00 0.16 0.16 93 1005.8
20200408030824 58 179 0.0 0.0 0.00 0.16 0.16 93 1005.9
20200408030314 58 181 0.0 4.0 0.00 0.16 0.16 93 1006.0
20200408025824 58 179 0.0 1.0 0.00 0.16 0.16 93 1006.0
20200408025316 58 158 0.0 0.0 0.00 0.16 0.16 93 1006.4
20200408024830 58 158 0.0 0.0 0.00 0.16 0.16 93 1006.2
20200408024320 58 158 0.0 1.0 0.00 0.16 0.16 93 1006.2
20200408023831 58 160 0.0 0.0 0.00 0.16 0.16 93 1006.3
20200408023321 58 160 0.0 0.0 0.00 0.16 0.16 93 1006.5
20200408022831 58 159 0.0 0.0 0.00 0.16 0.16 93 1006.6
20200408022321 58 159 0.0 0.0 0.00 0.16 0.16 93 1006.7
20200408021832 58 159 0.0 0.0 0.00 0.16 0.16 93 1006.7
20200408021323 58 159 0.0 0.0 0.00 0.16 0.16 93 1006.8
20200408020818 58 159 0.0 0.0 0.00 0.16 0.16 93 1007.1
20200408020329 58 159 0.0 0.0 0.00 0.16 0.16 93 1007.0
20200408015818 58 159 0.0 0.0 0.00 0.16 0.16 93 1007.0
20200408015329 58 159 0.0 0.0 0.00 0.16 0.16 93 1007.1
20200408014820 58 159 0.0 0.0 0.00 0.16 0.16 92 1007.2
20200408014329 58 159 0.0 0.0 0.00 0.16 0.16 92 1007.3
20200408013819 59 159 0.0 0.0 0.00 0.16 0.16 92 1007.3
20200408013330 59 159 0.0 0.0 0.00 0.16 0.16 92 1007.2
20200408012821 59 159 0.0 0.0 0.00 0.16 0.16 92 1007.4
20200408012315 59 159 0.0 0.0 0.00 0.16 0.16 92 1007.5
20200408011825 59 159 0.0 0.0 0.00 0.16 0.16 92 1007.7
20200408011315 59 159 0.0 0.0 0.00 0.16 0.16 92 1007.7
20200408010827 59 159 0.0 0.0 0.00 0.16 0.16 92 1007.6
20200408010317 59 159 0.0 0.0 0.01 0.16 0.16 92 1007.5
20200408005826 59 159 0.0 0.0 0.01 0.16 0.16 91 1007.5
20200408005316 59 159 0.0 0.0 0.01 0.16 0.16 90 1007.6
20200408004827 60 159 0.0 0.0 0.01 0.16 0.16 90 1007.5
20200408004321 60 159 0.0 0.0 0.01 0.16 0.16 90 1007.5
20200408003831 60 159 0.0 0.0 0.01 0.16 0.16 90 1007.6
20200408003320 60 159 0.0 0.0 0.01 0.16 0.16 90 1007.5
20200408002831 61 159 0.0 0.0 0.01 0.16 0.16 89 1007.7
20200408002321 61 159 0.0 0.0 0.01 0.16 0.16 89 1008.0
20200408001832 61 159 0.0 2.0 0.01 0.16 0.16 88 1007.9
20200408001324 61 156 0.0 2.0 0.01 0.16 0.16 88 1007.5
20200408000832 61 172 0.0 1.0 0.01 0.16 0.16 89 1007.3
20200408000321 61 216 0.0 0.0 0.00 0.15 0.15 88 1007.5
20200407235815 62 216 0.0 0.0 0.00 0.15 0.15 87 1008.1
20200407235327 62 216 0.0 0.0 0.00 0.15 0.15 87 1008.0
20200407234817 62 216 0.0 0.0 0.00 0.15 0.15 87 1008.1
20200407234328 62 216 0.0 0.0 0.00 0.15 0.15 86 1008.0
20200407233818 62 216 0.0 0.0 0.00 0.15 0.15 86 1008.0
20200407233329 62 216 0.0 0.0 0.00 0.15 0.15 86 1008.2
20200407232819 62 216 0.0 0.0 0.00 0.15 0.15 84 1008.2
20200407232330 63 216 0.0 0.0 0.00 0.15 0.15 85 1008.2
20200407231824 63 216 0.0 0.0 0.00 0.15 0.15 84 1008.1
20200407231314 63 216 0.0 0.0 0.00 0.15 0.15 84 1008.1
20200407230824 63 216 0.0 0.0 0.00 0.15 0.15 83 1007.9
20200407230314 63 216 0.0 0.0 0.00 0.15 0.15 83 1008.1
20200407225823 63 216 0.0 0.0 0.00 0.15 0.15 82 1008.0
20200407225313 64 215 0.0 0.0 0.00 0.15 0.15 81 1008.3
20200407224825 64 215 0.0 3.0 0.00 0.15 0.15 81 1008.1
20200407224315 64 215 1.0 3.0 0.00 0.15 0.15 79 1008.0